Moose, Wyoming, United States (83012)
Lat: 43.66N, Lon: 110.72W
Wx Zone: WYZ013
Local Info
Past Weather Observations for Wednesday, October 29, 2014

NOTE: This archive is for the closest National Weather Service station to Moose. Information may differ from the station used for current weather conditions.

Click here for Long-term Archive

Time Weather Temperature Dewpoint Humidity Pressure Winds Precip Visibility
23:55
Partly Cloudy
30°F / -1°C 28°F / -2°C 93% 30.33 in
(1027 mb)
NNE 3.5 mph
(NNE 6 kph)
- 10SM
23:35
Partly Cloudy
30°F / -1°C 28°F / -2°C 93% 30.33 in
(1027 mb)
NNE 3.5 mph
(NNE 6 kph)
- 10SM
23:15
Clear
32°F / 0°C 28°F / -2°C 87% 30.33 in
(1027 mb)
NE 5.8 mph
(NE 9 kph)
- 10SM
22:55
Clear
34°F / 1°C 30°F / -1°C 87% 30.33 in
(1027 mb)
N 9.2 mph
(N 15 kph)
- 10SM
22:35
Partly Cloudy
34°F / 1°C 30°F / -1°C 87% 30.3 in
(1026 mb)
N 6.9 mph
(N 11 kph)
- 10SM
22:15
Mostly Cloudy
36°F / 2°C 30°F / -1°C 81% 30.3 in
(1026 mb)
NE 4.6 mph
(NE 7 kph)
- 10SM
21:55
Overcast
36°F / 2°C 30°F / -1°C 81% 30.3 in
(1026 mb)
N 10.4 mph
(N 17 kph)
- 10SM
21:35
Overcast
36°F / 2°C 30°F / -1°C 81% 30.3 in
(1026 mb)
N 9.2 mph
(N 15 kph)
- 10SM
21:15
Mostly Cloudy
36°F / 2°C 30°F / -1°C 81% 30.3 in
(1026 mb)
N 4.6 mph
(N 7 kph)
- 10SM
20:55
Mostly Cloudy
37°F / 3°C 32°F / 0°C 81% 30.3 in
(1026 mb)
N 6.9 mph
(N 11 kph)
- 10SM
20:35
Partly Cloudy
37°F / 3°C 30°F / -1°C 75% 30.3 in
(1026 mb)
N 6.9 mph
(N 11 kph)
- 10SM
20:15
Partly Cloudy
39°F / 4°C 32°F / 0°C 75% 30.3 in
(1026 mb)
N 8.1 mph
(N 13 kph)
- 10SM
19:55
Partly Cloudy
39°F / 4°C 30°F / -1°C 70% 30.3 in
(1026 mb)
N 8.1 mph
(N 13 kph)
- 10SM
19:35
Partly Cloudy
39°F / 4°C 30°F / -1°C 70% 30.3 in
(1026 mb)
N 6.9 mph
(N 11 kph)
- 10SM
18:51
Mostly Cloudy
41°F / 5°C 30°F / -1°C 66% 30.3 in
(1026 mb)
NNW 3.5 mph
(NNW 6 kph)
- 10SM
17:51
Partly Cloudy
43°F / 6°C 30°F / -1°C 61% 30.27 in
(1025 mb)
Calm - 10SM
16:51
Partly Cloudy
48°F / 9°C 30°F / -1°C 50% 30.27 in
(1025 mb)
SW 5.8 mph
(SW 9 kph)
- 10SM
15:52
Overcast
52°F / 11°C 28°F / -2°C 41% 30.24 in
(1024 mb)
SW 16.1 mph
(SW 26 kph)
- 10SM
14:55
Mostly Cloudy
54°F / 12°C 30°F / -1°C 41% 30.24 in
(1024 mb)
SW 11.5 mph
(SW 19 kph)
- 10SM
13:51
Mostly Cloudy
52°F / 11°C 28°F / -2°C 41% 30.21 in
(1023 mb)
SW 11.5 mph
(SW 19 kph)
- 10SM
12:51
Overcast
48°F / 9°C 27°F / -3°C 43% 30.24 in
(1024 mb)
SSW 8.1 mph
(SSW 13 kph)
- 10SM
11:51
Mostly Cloudy
46°F / 8°C 25°F / -4°C 43% 30.27 in
(1025 mb)
SW 6.9 mph
(SW 11 kph)
- 10SM
10:54
Mostly Cloudy
43°F / 6°C 25°F / -4°C 49% 30.27 in
(1025 mb)
Calm - 10SM
09:53
Partly Cloudy
37°F / 3°C 25°F / -4°C 60% 30.27 in
(1025 mb)
Calm - 10SM
08:55
Overcast
30°F / -1°C 27°F / -3°C 86% 30.27 in
(1025 mb)
Variable 5.8 mph
(Variable 9 kph)
- 10SM
07:51
Overcast
27°F / -3°C 25°F / -4°C 93% 30.27 in
(1025 mb)
Calm - 10SM
06:51
Overcast
27°F / -3°C 25°F / -4°C 93% 30.24 in
(1024 mb)
Variable 5.8 mph
(Variable 9 kph)
- 10SM
05:51
Overcast
25°F / -4°C 23°F / -5°C 93% 30.24 in
(1024 mb)
N 3.5 mph
(N 6 kph)
- 10SM
05:35
Overcast
25°F / -4°C 23°F / -5°C 93% 30.24 in
(1024 mb)
Calm - 10SM
05:15
Overcast
25°F / -4°C 21°F / -6°C 86% 30.24 in
(1024 mb)
Calm - 10SM
04:55
Overcast
23°F / -5°C 21°F / -6°C 93% 30.24 in
(1024 mb)
Calm - 10SM
04:35
Overcast
21°F / -6°C 19°F / -7°C 93% 30.24 in
(1024 mb)
NNW 6.9 mph
(NNW 11 kph)
- 10SM
04:15
Overcast
21°F / -6°C 19°F / -7°C 93% 30.27 in
(1025 mb)
Calm - 10SM
03:55
Partly Cloudy
19°F / -7°C 19°F / -7°C 100% 30.24 in
(1024 mb)
NE 3.5 mph
(NE 6 kph)
- 10SM
03:35
Clear
19°F / -7°C 19°F / -7°C 100% 30.24 in
(1024 mb)
N 6.9 mph
(N 11 kph)
- 10SM
03:15
Partly Cloudy
19°F / -7°C 19°F / -7°C 100% 30.27 in
(1025 mb)
N 9.2 mph
(N 15 kph)
- 10SM
02:55
Partly Cloudy
19°F / -7°C 18°F / -8°C 93% 30.27 in
(1025 mb)
NE 3.5 mph
(NE 6 kph)
- 10SM
02:35
Clear
19°F / -7°C 19°F / -7°C 100% 30.27 in
(1025 mb)
N 8.1 mph
(N 13 kph)
- 10SM
02:15
Clear
21°F / -6°C 19°F / -7°C 93% 30.27 in
(1025 mb)
N 6.9 mph
(N 11 kph)
- 10SM
01:55
Clear
21°F / -6°C 19°F / -7°C 93% 30.27 in
(1025 mb)
NNE 4.6 mph
(NNE 7 kph)
- 10SM
01:35
Clear
21°F / -6°C 19°F / -7°C 93% 30.27 in
(1025 mb)
NE 5.8 mph
(NE 9 kph)
- 10SM
01:15
Clear
19°F / -7°C 18°F / -8°C 93% 30.27 in
(1025 mb)
N 3.5 mph
(N 6 kph)
- 10SM
00:55
Clear
19°F / -7°C 18°F / -8°C 93% 30.27 in
(1025 mb)
N 8.1 mph
(N 13 kph)
- 10SM
00:35
Clear
21°F / -6°C 19°F / -7°C 93% 30.27 in
(1025 mb)
N 5.8 mph
(N 9 kph)
- 10SM
00:15
Clear
19°F / -7°C 18°F / -8°C 93% 30.27 in
(1025 mb)
N 6.9 mph
(N 11 kph)
- 10SM
Time Weather Temperature Dewpoint Humidity Pressure Winds Precip Visibility


Weather for websites

WeatherForYou.com, LLC is not responsible for any damages or problems caused by this service. Current weather conditions are obtained from the closest station including government and personal stations which may have varying degrees of accuracy. Weather forecasts are derived from the NOAA NDFD. Like all things, this site belongs to Jesus Christ... He just trusts me to maintain it. If you have any questions or comments email webmaster@weatherforyou.com

Copyright © 2014, WeatherForYou.com LLC. All rights reserved.